• In Russia
  • List of Countries
  • For 7 days
  • Water Temperature
  • Satellite Maps
  • Weather Map
  • Weather Widgets
  • user-avatar
    Login

    Hourly Weather Hajdusamson

    Today, 23 September, Saturday

    Time Temperature Precipitation Wind Pressure Humidity
    00:00 +14°C° 0.2 mm 2 mps 750 mmHg 76%
    01:00 +13°C° 0 mm 2 mps 750 mmHg 81%
    02:00 +13°C° 1 mm 2 mps 750 mmHg 83%
    03:00 +13°C° 1 mm 2 mps 749 mmHg 85%
    04:00 +11°C° 1 mm 3 mps 749 mmHg 87%
    05:00 +11°C° 1.5 mm 3 mps 749 mmHg 87%
    06:00 +11°C° 1.5 mm 3 mps 749 mmHg 88%
    07:00 +11°C° 0 mm 3 mps 750 mmHg 88%
    08:00 +11°C° 1 mm 3 mps 750 mmHg 88%
    09:00 +11°C° 1 mm 3 mps 750 mmHg 87%
    10:00 +12°C° 1 mm 3 mps 751 mmHg 86%
    11:00 +12°C° 0.3 mm 3 mps 751 mmHg 83%
    12:00 +14°C° 0.3 mm 2 mps 751 mmHg 80%
    13:00 +15°C° 0.3 mm 2 mps 751 mmHg 77%
    14:00 +15°C° 0.1 mm 2 mps 751 mmHg 77%
    15:00 +15°C° 0.1 mm 2 mps 751 mmHg 78%
    16:00 +14°C° 0.1 mm 3 mps 751 mmHg 78%
    17:00 +13°C° 0 mm 3 mps 752 mmHg 82%
    18:00 +12°C° 0 mm 3 mps 752 mmHg 85%
    19:00 +11°C° 0 mm 3 mps 752 mmHg 89%
    20:00 +11°C° 0 mm 3 mps 752 mmHg 90%
    21:00 +10°C° 0 mm 2 mps 752 mmHg 91%
    22:00 +10°C° 0 mm 2 mps 752 mmHg 92%
    23:00 +9°C° 0 mm 2 mps 752 mmHg 92%

    Tomorrow, 24 September, Sunday

    Time Temperature Precipitation Wind Pressure Humidity
    00:00 +9°C° 0 mm 2 mps 752 mmHg 93%
    01:00 +9°C° 0 mm 2 mps 752 mmHg 93%
    02:00 +9°C° 0 mm 2 mps 752 mmHg 93%
    03:00 +9°C° 0 mm 1 mps 752 mmHg 94%
    04:00 +9°C° 0 mm 1 mps 752 mmHg 94%
    05:00 +10°C° 0 mm 1 mps 753 mmHg 92%
    06:00 +10°C° 0 mm 1 mps 753 mmHg 89%
    07:00 +11°C° 0 mm 1 mps 753 mmHg 87%
    08:00 +13°C° 0 mm 1 mps 753 mmHg 81%
    09:00 +14°C° 0 mm 1 mps 753 mmHg 75%
    10:00 +16°C° 0 mm 1 mps 753 mmHg 69%
    11:00 +18°C° 0 mm 1 mps 753 mmHg 65%
    12:00 +18°C° 0 mm 1 mps 753 mmHg 61%
    13:00 +19°C° 0 mm 1 mps 753 mmHg 58%
    14:00 +19°C° 0 mm 1 mps 753 mmHg 57%
    15:00 +19°C° 0 mm 1 mps 753 mmHg 57%
    16:00 +17°C° 0 mm 0 mps 753 mmHg 57%
    17:00 +16°C° 0 mm 0 mps 753 mmHg 62%
    18:00 +14°C° 0 mm 0 mps 753 mmHg 67%
    19:00 +13°C° 0 mm 0 mps 753 mmHg 72%
    20:00 +13°C° 0 mm 0 mps 753 mmHg 74%
    21:00 +12°C° 0 mm 0 mps 754 mmHg 76%
    22:00 +12°C° 0 mm 0 mps 754 mmHg 78%
    23:00 +13°C° 0 mm 1 mps 754 mmHg 79%

    Day after tomorrow, 25 September, Monday

    Time Temperature Precipitation Wind Pressure Humidity
    00:00 +12°C° 0 mm 1 mps 754 mmHg 79%
    01:00 +12°C° 0 mm 1 mps 754 mmHg 80%
    02:00 +12°C° 0 mm 1 mps 754 mmHg 81%
    03:00 +12°C° 0 mm 1 mps 754 mmHg 82%
    04:00 +12°C° 0 mm 1 mps 754 mmHg 83%
    05:00 +12°C° 0 mm 2 mps 754 mmHg 82%
    06:00 +12°C° 0 mm 2 mps 754 mmHg 81%
    07:00 +13°C° 0 mm 2 mps 754 mmHg 79%
    08:00 +15°C° 0 mm 2 mps 754 mmHg 72%
    09:00 +17°C° 0 mm 2 mps 754 mmHg 64%
    10:00 +18°C° 0 mm 3 mps 754 mmHg 56%
    11:00 +19°C° 0 mm 2 mps 754 mmHg 53%
    12:00 +20°C° 0 mm 2 mps 754 mmHg 49%
    13:00 +21°C° 0 mm 2 mps 754 mmHg 45%
    14:00 +21°C° 0 mm 2 mps 754 mmHg 46%
    15:00 +22°C° 0 mm 1 mps 754 mmHg 48%
    16:00 +23°C° 0 mm 1 mps 754 mmHg 49%
    17:00 +21°C° 0 mm 1 mps 754 mmHg 53%
    18:00 +18°C° 0 mm 2 mps 755 mmHg 57%
    19:00 +17°C° 0 mm 2 mps 755 mmHg 61%
    20:00 +16°C° 0 mm 2 mps 755 mmHg 63%
    21:00 +16°C° 0 mm 2 mps 755 mmHg 65%
    22:00 +15°C° 0 mm 2 mps 755 mmHg 68%
    23:00 +15°C° 0 mm 2 mps 755 mmHg 69%

    26 September, Tuesday

    Time Temperature Precipitation Wind Pressure Humidity
    00:00 +13°C° 0 mm 3 mps 755 mmHg 70%
    01:00 +13°C° 0 mm 3 mps 755 mmHg 71%
    02:00 +13°C° 0 mm 3 mps 755 mmHg 71%
    03:00 +12°C° 0 mm 3 mps 755 mmHg 72%
    04:00 +12°C° 0 mm 3 mps 755 mmHg 72%
    05:00 +13°C° 0 mm 3 mps 755 mmHg 70%
    06:00 +13°C° 0 mm 3 mps 755 mmHg 68%
    07:00 +14°C° 0 mm 3 mps 755 mmHg 66%
    08:00 +17°C° 0 mm 3 mps 755 mmHg 60%
    09:00 +20°C° 0 mm 4 mps 755 mmHg 54%
    10:00 +22°C° 0 mm 4 mps 755 mmHg 48%
    11:00 +23°C° 0 mm 4 mps 755 mmHg 45%
    12:00 +25°C° 0 mm 4 mps 755 mmHg 43%
    13:00 +26°C° 0 mm 4 mps 754 mmHg 40%
    14:00 +25°C° 0 mm 4 mps 754 mmHg 43%
    15:00 +25°C° 0 mm 3 mps 754 mmHg 45%
    16:00 +24°C° 0 mm 3 mps 754 mmHg 47%
    17:00 +22°C° 0 mm 3 mps 754 mmHg 51%
    18:00 +20°C° 0 mm 3 mps 754 mmHg 55%
    19:00 +19°C° 0 mm 3 mps 755 mmHg 58%
    20:00 +18°C° 0 mm 3 mps 755 mmHg 59%
    21:00 +17°C° 0 mm 3 mps 755 mmHg 60%
    22:00 +17°C° 0 mm 3 mps 755 mmHg 61%
    23:00 +17°C° 0 mm 3 mps 755 mmHg 60%

    27 September, Wednesday

    Time Temperature Precipitation Wind Pressure Humidity
    00:00 +16°C° 0 mm 3 mps 755 mmHg 59%
    01:00 +16°C° 0 mm 3 mps 755 mmHg 57%
    02:00 +14°C° 0 mm 3 mps 756 mmHg 57%
    03:00 +14°C° 0 mm 3 mps 756 mmHg 57%
    04:00 +15°C° 0 mm 2 mps 756 mmHg 56%
    05:00 +15°C° 0 mm 2 mps 756 mmHg 56%
    06:00 +14°C° 0 mm 3 mps 756 mmHg 55%
    07:00 +14°C° 0 mm 3 mps 756 mmHg 55%
    08:00 +17°C° 0 mm 3 mps 756 mmHg 50%
    09:00 +19°C° 0 mm 3 mps 757 mmHg 44%
    10:00 +21°C° 0 mm 3 mps 757 mmHg 39%
    11:00 +22°C° 0 mm 3 mps 757 mmHg 36%
    12:00 +24°C° 0 mm 3 mps 756 mmHg 32%
    13:00 +23°C° 0 mm 4 mps 756 mmHg 29%
    14:00 +24°C° 0 mm 3 mps 756 mmHg 31%
    15:00 +22°C° 0 mm 3 mps 756 mmHg 34%
    16:00 +22°C° 0 mm 3 mps 756 mmHg 37%
    17:00 +20°C° 0 mm 3 mps 756 mmHg 39%
    18:00 +19°C° 0 mm 3 mps 757 mmHg 42%
    19:00 +17°C° 0 mm 3 mps 757 mmHg 45%
    20:00 +17°C° 0 mm 3 mps 757 mmHg 46%
    21:00 +16°C° 0 mm 3 mps 757 mmHg 48%
    22:00 +16°C° 0 mm 3 mps 757 mmHg 49%
    23:00 +14°C° 0 mm 3 mps 758 mmHg 50%

    28 September, Thursday

    Time Temperature Precipitation Wind Pressure Humidity
    00:00 +14°C° 0 mm 3 mps 758 mmHg 52%
    01:00 +14°C° 0 mm 2 mps 758 mmHg 54%
    02:00 +14°C° 0 mm 2 mps 758 mmHg 56%
    03:00 +13°C° 0 mm 2 mps 758 mmHg 57%
    04:00 +13°C° 0 mm 2 mps 758 mmHg 59%
    05:00 +13°C° 0 mm 2 mps 758 mmHg 59%
    06:00 +14°C° 0 mm 2 mps 758 mmHg 59%
    07:00 +14°C° 0 mm 2 mps 758 mmHg 59%
    08:00 +16°C° 0 mm 2 mps 758 mmHg 54%
    09:00 +18°C° 0 mm 2 mps 758 mmHg 49%
    10:00 +20°C° 0 mm 2 mps 759 mmHg 43%
    11:00 +20°C° 0 mm 3 mps 758 mmHg 41%
    12:00 +21°C° 0 mm 3 mps 758 mmHg 39%
    13:00 +22°C° 0 mm 3 mps 758 mmHg 37%
    14:00 +22°C° 0 mm 3 mps 758 mmHg 39%
    15:00 +21°C° 0 mm 3 mps 758 mmHg 41%
    16:00 +21°C° 0 mm 3 mps 757 mmHg 44%
    17:00 +19°C° 0 mm 2 mps 758 mmHg 48%
    18:00 +18°C° 0 mm 2 mps 758 mmHg 52%
    19:00 +16°C° 0 mm 2 mps 758 mmHg 56%
    20:00 +15°C° 0 mm 2 mps 758 mmHg 58%
    21:00 +15°C° 0 mm 2 mps 759 mmHg 60%
    22:00 +13°C° 0 mm 3 mps 759 mmHg 62%
    23:00 +13°C° 0 mm 3 mps 759 mmHg 62%
    Show more